Time,TemperatureF,DewpointF,PressureIn,WindDirection,WindDirectionDegrees,WindSpeedMPH,WindSpeedGustMPH,Humidity,HourlyPrecipIn,Conditions,Clouds,dailyrainin,SoftwareType,DateUTC
2013-06-04 00:01:00,64.5,56.8,29.98,NW,322,3.0,3.0,76,0.00,,,0.00,Wunderground v.1.15,2013-06-04 04:01:00,
2013-06-04 00:02:00,64.5,57.1,29.98,NW,322,3.0,4.0,77,0.00,,,0.00,Wunderground v.1.15,2013-06-04 04:02:00,
2013-06-04 00:07:00,64.3,56.9,29.98,NW,322,2.0,4.0,77,0.00,,,0.00,Wunderground v.1.15,2013-06-04 04:07:00,
2013-06-04 00:12:00,64.3,56.9,29.98,NW,322,0.0,2.0,77,0.00,,,0.00,Wunderground v.1.15,2013-06-04 04:12:00,
2013-06-04 00:17:00,64.3,56.9,29.98,NW,322,0.0,3.0,77,0.00,,,0.00,Wunderground v.1.15,2013-06-04 04:17:00,
2013-06-04 00:22:00,64.3,56.9,29.98,NW,322,0.0,1.0,77,0.00,,,0.00,Wunderground v.1.15,2013-06-04 04:22:00,
2013-06-04 00:27:00,64.3,56.9,29.98,NW,322,0.0,1.0,77,0.00,,,0.00,Wunderground v.1.15,2013-06-04 04:27:00,
2013-06-04 00:32:00,64.3,57.3,29.98,NW,322,0.0,0.0,78,0.00,,,0.00,Wunderground v.1.15,2013-06-04 04:32:00,
2013-06-04 00:37:00,64.2,57.2,29.98,NW,322,0.0,0.0,78,0.00,,,0.00,Wunderground v.1.15,2013-06-04 04:37:00,
2013-06-04 00:42:00,64.0,57.0,29.98,NW,322,0.0,0.0,78,0.00,,,0.00,Wunderground v.1.15,2013-06-04 04:42:00,
2013-06-04 00:47:00,63.9,57.3,29.98,NW,322,0.0,1.0,79,0.00,,,0.00,Wunderground v.1.15,2013-06-04 04:47:00,
2013-06-04 00:52:00,63.7,57.4,29.98,NW,322,0.0,1.0,80,0.00,,,0.00,Wunderground v.1.15,2013-06-04 04:52:00,
2013-06-04 00:57:00,63.5,57.2,29.98,NW,322,0.0,1.0,80,0.00,,,0.00,Wunderground v.1.15,2013-06-04 04:57:00,
2013-06-04 01:02:00,63.4,57.1,29.98,NW,322,0.0,1.0,80,0.00,,,0.00,Wunderground v.1.15,2013-06-04 05:02:00,
2013-06-04 01:07:00,63.2,57.3,29.98,NW,322,0.0,1.0,81,0.00,,,0.00,Wunderground v.1.15,2013-06-04 05:07:00,
2013-06-04 01:12:00,63.2,56.9,29.98,NW,322,0.0,1.0,80,0.00,,,0.00,Wunderground v.1.15,2013-06-04 05:12:00,
2013-06-04 01:17:00,63.2,56.9,29.98,NW,322,0.0,1.0,80,0.00,,,0.00,Wunderground v.1.15,2013-06-04 05:17:00,
2013-06-04 01:22:00,63.2,56.9,29.98,NW,322,0.0,0.0,80,0.00,,,0.00,Wunderground v.1.15,2013-06-04 05:22:00,
2013-06-04 01:27:00,63.2,56.9,29.98,NW,322,0.0,1.0,80,0.00,,,0.00,Wunderground v.1.15,2013-06-04 05:27:00,
2013-06-04 01:32:00,63.4,57.1,29.98,NW,322,0.0,0.0,80,0.00,,,0.00,Wunderground v.1.15,2013-06-04 05:32:00,
2013-06-04 01:37:00,63.4,57.1,29.98,NW,322,0.0,1.0,80,0.00,,,0.00,Wunderground v.1.15,2013-06-04 05:37:00,
2013-06-04 01:42:00,63.4,56.8,29.97,NW,322,0.0,3.0,79,0.00,,,0.00,Wunderground v.1.15,2013-06-04 05:42:00,
2013-06-04 01:47:00,63.4,56.8,29.97,NW,322,2.0,3.0,79,0.00,,,0.00,Wunderground v.1.15,2013-06-04 05:47:00,
2013-06-04 01:52:00,63.4,56.8,29.97,NW,322,0.0,1.0,79,0.00,,,0.00,Wunderground v.1.15,2013-06-04 05:52:00,
2013-06-04 01:57:00,63.2,56.6,29.96,NW,322,0.0,1.0,79,0.00,,,0.00,Wunderground v.1.15,2013-06-04 05:57:00,
2013-06-04 02:02:00,63.2,56.6,29.96,NW,322,0.0,0.0,79,0.00,,,0.00,Wunderground v.1.15,2013-06-04 06:02:00,
2013-06-04 02:07:00,63.2,56.6,29.96,NW,322,0.0,0.0,79,0.00,,,0.00,Wunderground v.1.15,2013-06-04 06:07:00,
2013-06-04 02:12:00,63.2,56.6,29.96,NW,322,0.0,0.0,79,0.00,,,0.00,Wunderground v.1.15,2013-06-04 06:12:00,
2013-06-04 02:17:00,63.2,56.9,29.96,NW,322,0.0,1.0,80,0.00,,,0.00,Wunderground v.1.15,2013-06-04 06:17:00,
2013-06-04 02:22:00,63.1,56.8,29.96,NW,322,0.0,0.0,80,0.00,,,0.00,Wunderground v.1.15,2013-06-04 06:22:00,
2013-06-04 02:27:00,62.9,56.6,29.96,NW,322,0.0,2.0,80,0.00,,,0.00,Wunderground v.1.15,2013-06-04 06:27:00,
2013-06-04 02:32:00,62.9,56.6,29.96,NW,322,0.0,1.0,80,0.00,,,0.00,Wunderground v.1.15,2013-06-04 06:32:00,
2013-06-04 02:37:00,62.7,56.8,29.96,NW,322,0.0,1.0,81,0.00,,,0.00,Wunderground v.1.15,2013-06-04 06:37:00,
2013-06-04 02:42:00,62.6,57.0,29.96,NW,322,0.0,0.0,82,0.00,,,0.00,Wunderground v.1.15,2013-06-04 06:42:00,
2013-06-04 02:47:00,62.4,56.8,29.96,NW,322,1.0,3.0,82,0.00,,,0.00,Wunderground v.1.15,2013-06-04 06:47:00,
2013-06-04 02:52:00,62.3,57.1,29.96,NW,322,0.0,1.0,83,0.00,,,0.00,Wunderground v.1.15,2013-06-04 06:52:00,
2013-06-04 02:57:00,62.1,56.9,29.96,NW,322,0.0,1.0,83,0.00,,,0.00,Wunderground v.1.15,2013-06-04 06:57:00,
2013-06-04 03:02:00,62.0,56.8,29.96,NW,322,0.0,0.0,83,0.00,,,0.00,Wunderground v.1.15,2013-06-04 07:02:00,
2013-06-04 03:07:00,62.0,57.1,29.96,NW,322,0.0,1.0,84,0.00,,,0.00,Wunderground v.1.15,2013-06-04 07:07:00,
2013-06-04 03:12:00,61.8,56.9,29.96,NW,322,0.0,0.0,84,0.00,,,0.00,Wunderground v.1.15,2013-06-04 07:12:00,
2013-06-04 03:17:00,61.8,56.9,29.96,NW,322,0.0,0.0,84,0.00,,,0.00,Wunderground v.1.15,2013-06-04 07:17:00,
2013-06-04 03:22:00,61.8,56.9,29.96,NW,322,0.0,0.0,84,0.00,,,0.00,Wunderground v.1.15,2013-06-04 07:22:00,
2013-06-04 03:27:00,61.8,56.9,29.96,NW,322,0.0,0.0,84,0.00,,,0.00,Wunderground v.1.15,2013-06-04 07:27:00,
2013-06-04 03:32:00,61.6,56.7,29.96,NW,322,0.0,0.0,84,0.00,,,0.00,Wunderground v.1.15,2013-06-04 07:32:00,
2013-06-04 03:37:00,61.6,56.7,29.96,NW,322,0.0,0.0,84,0.00,,,0.00,Wunderground v.1.15,2013-06-04 07:37:00,
2013-06-04 03:42:00,61.6,57.0,29.96,NW,322,0.0,0.0,85,0.00,,,0.00,Wunderground v.1.15,2013-06-04 07:42:00,
2013-06-04 03:47:00,61.8,56.9,29.96,NW,322,0.0,0.0,84,0.00,,,0.00,Wunderground v.1.15,2013-06-04 07:47:00,
2013-06-04 03:52:00,61.8,56.9,29.96,NW,322,0.0,1.0,84,0.00,,,0.00,Wunderground v.1.15,2013-06-04 07:52:00,
2013-06-04 03:57:00,61.8,56.6,29.97,NW,322,0.0,1.0,83,0.00,,,0.00,Wunderground v.1.15,2013-06-04 07:57:00,
2013-06-04 04:02:00,62.0,57.1,29.97,NW,322,0.0,0.0,84,0.00,,,0.00,Wunderground v.1.15,2013-06-04 08:02:00,
2013-06-04 04:07:00,62.0,57.1,29.97,NW,322,0.0,1.0,84,0.00,,,0.00,Wunderground v.1.15,2013-06-04 08:07:00,
2013-06-04 04:12:00,62.0,57.1,29.97,NW,322,0.0,0.0,84,0.00,,,0.00,Wunderground v.1.15,2013-06-04 08:12:00,
2013-06-04 04:17:00,62.0,57.1,29.97,NW,322,0.0,0.0,84,0.00,,,0.00,Wunderground v.1.15,2013-06-04 08:17:00,
2013-06-04 04:22:00,61.8,56.6,29.97,NW,322,0.0,0.0,83,0.00,,,0.00,Wunderground v.1.15,2013-06-04 08:22:00,
2013-06-04 04:27:00,61.8,56.2,29.96,NW,322,0.0,0.0,82,0.00,,,0.00,Wunderground v.1.15,2013-06-04 08:27:00,
2013-06-04 04:32:00,62.0,57.1,29.96,NW,322,0.0,0.0,84,0.00,,,0.00,Wunderground v.1.15,2013-06-04 08:32:00,
2013-06-04 04:37:00,62.1,57.2,29.96,NW,322,0.0,0.0,84,0.00,,,0.00,Wunderground v.1.15,2013-06-04 08:37:00,
2013-06-04 04:42:00,62.0,56.8,29.96,NW,322,0.0,0.0,83,0.00,,,0.00,Wunderground v.1.15,2013-06-04 08:42:00,
2013-06-04 04:47:00,62.0,56.4,29.96,NW,322,0.0,0.0,82,0.00,,,0.00,Wunderground v.1.15,2013-06-04 08:47:00,
2013-06-04 04:52:00,62.0,56.8,29.96,NW,322,0.0,0.0,83,0.00,,,0.00,Wunderground v.1.15,2013-06-04 08:52:00,
2013-06-04 04:57:00,62.1,56.5,29.96,NW,322,0.0,0.0,82,0.00,,,0.00,Wunderground v.1.15,2013-06-04 08:57:00,
2013-06-04 05:02:00,62.1,56.9,29.96,NW,322,0.0,1.0,83,0.00,,,0.00,Wunderground v.1.15,2013-06-04 09:02:00,
2013-06-04 05:07:00,62.1,56.9,29.96,NW,322,0.0,1.0,83,0.00,,,0.00,Wunderground v.1.15,2013-06-04 09:07:00,
2013-06-04 05:12:00,62.0,56.8,29.97,NW,322,0.0,0.0,83,0.00,,,0.00,Wunderground v.1.15,2013-06-04 09:12:00,
2013-06-04 05:17:00,61.8,56.9,29.97,NW,322,0.0,1.0,84,0.00,,,0.00,Wunderground v.1.15,2013-06-04 09:17:00,
2013-06-04 05:22:00,61.6,56.7,29.97,NW,322,0.0,0.0,84,0.00,,,0.00,Wunderground v.1.15,2013-06-04 09:22:00,
2013-06-04 05:27:00,61.5,56.6,29.97,NW,322,0.0,0.0,84,0.00,,,0.00,Wunderground v.1.15,2013-06-04 09:27:00,
2013-06-04 05:32:00,61.3,56.8,29.97,NW,322,0.0,0.0,85,0.00,,,0.00,Wunderground v.1.15,2013-06-04 09:32:00,
2013-06-04 05:37:00,61.3,56.8,29.97,NW,322,0.0,0.0,85,0.00,,,0.00,Wunderground v.1.15,2013-06-04 09:37:00,
2013-06-04 05:42:00,61.3,56.8,29.97,NW,322,0.0,0.0,85,0.00,,,0.00,Wunderground v.1.15,2013-06-04 09:42:00,
2013-06-04 05:47:00,61.3,56.8,29.97,NW,322,0.0,0.0,85,0.00,,,0.00,Wunderground v.1.15,2013-06-04 09:47:00,
2013-06-04 05:52:00,61.3,57.1,29.97,NW,322,0.0,0.0,86,0.00,,,0.00,Wunderground v.1.15,2013-06-04 09:52:00,
2013-06-04 05:57:00,61.3,56.8,29.97,NW,322,0.0,0.0,85,0.00,,,0.00,Wunderground v.1.15,2013-06-04 09:57:00,
2013-06-04 06:02:00,61.5,56.9,29.97,NW,322,0.0,0.0,85,0.00,,,0.00,Wunderground v.1.15,2013-06-04 10:02:00,
2013-06-04 06:07:00,61.5,56.9,29.97,NW,322,0.0,0.0,85,0.00,,,0.00,Wunderground v.1.15,2013-06-04 10:07:00,
2013-06-04 06:12:00,61.5,56.6,29.98,NW,322,0.0,0.0,84,0.00,,,0.00,Wunderground v.1.15,2013-06-04 10:12:00,
2013-06-04 06:17:00,61.5,56.6,29.98,NW,322,0.0,0.0,84,0.00,,,0.00,Wunderground v.1.15,2013-06-04 10:17:00,
2013-06-04 06:22:00,61.6,56.7,29.98,NW,322,0.0,0.0,84,0.00,,,0.00,Wunderground v.1.15,2013-06-04 10:22:00,
2013-06-04 06:27:00,61.6,57.0,29.98,NW,322,0.0,0.0,85,0.00,,,0.00,Wunderground v.1.15,2013-06-04 10:27:00,
2013-06-04 06:32:00,61.6,57.4,29.98,NW,322,0.0,0.0,86,0.00,,,0.00,Wunderground v.1.15,2013-06-04 10:32:00,
2013-06-04 06:37:00,61.5,56.9,29.98,NW,322,0.0,1.0,85,0.00,,,0.00,Wunderground v.1.15,2013-06-04 10:37:00,
2013-06-04 06:42:00,61.5,56.6,29.99,NW,322,0.0,0.0,84,0.00,,,0.00,Wunderground v.1.15,2013-06-04 10:42:00,
2013-06-04 06:48:00,61.5,56.6,29.99,NW,322,0.0,0.0,84,0.00,,,0.00,Wunderground v.1.15,2013-06-04 10:48:00,
2013-06-04 06:53:00,61.5,56.6,29.99,NW,322,0.0,0.0,84,0.00,,,0.00,Wunderground v.1.15,2013-06-04 10:53:00,
2013-06-04 06:58:00,61.6,56.7,30.00,NW,322,0.0,0.0,84,0.00,,,0.00,Wunderground v.1.15,2013-06-04 10:58:00,
2013-06-04 07:03:00,61.6,56.7,30.00,NW,322,0.0,0.0,84,0.00,,,0.00,Wunderground v.1.15,2013-06-04 11:03:00,
2013-06-04 07:08:00,61.8,56.9,30.00,NW,322,0.0,0.0,84,0.00,,,0.00,Wunderground v.1.15,2013-06-04 11:08:00,
2013-06-04 07:13:00,62.0,57.1,30.00,NW,322,0.0,0.0,84,0.00,,,0.00,Wunderground v.1.15,2013-06-04 11:13:00,
2013-06-04 07:18:00,62.0,57.1,30.00,NW,322,0.0,0.0,84,0.00,,,0.00,Wunderground v.1.15,2013-06-04 11:18:00,
2013-06-04 07:23:00,62.0,57.1,30.00,NW,322,0.0,0.0,84,0.00,,,0.00,Wunderground v.1.15,2013-06-04 11:23:00,
2013-06-04 07:28:00,62.1,57.2,30.00,NW,322,0.0,0.0,84,0.00,,,0.00,Wunderground v.1.15,2013-06-04 11:28:00,
2013-06-04 07:33:00,62.4,57.2,30.00,NW,322,0.0,0.0,83,0.00,,,0.00,Wunderground v.1.15,2013-06-04 11:33:00,
2013-06-04 07:38:00,62.9,57.7,30.00,NW,322,0.0,0.0,83,0.00,,,0.00,Wunderground v.1.15,2013-06-04 11:38:00,
2013-06-04 07:43:00,63.9,58.3,30.01,NW,322,0.0,3.0,82,0.00,,,0.00,Wunderground v.1.15,2013-06-04 11:43:00,
2013-06-04 07:48:00,64.3,58.3,30.01,NW,322,0.0,3.0,81,0.00,,,0.00,Wunderground v.1.15,2013-06-04 11:48:00,
2013-06-04 07:53:00,64.8,58.1,30.01,NNW,330,1.0,1.0,79,0.00,,,0.00,Wunderground v.1.15,2013-06-04 11:53:00,
2013-06-04 07:58:00,65.2,58.5,30.00,NNW,333,2.0,3.0,79,0.00,,,0.00,Wunderground v.1.15,2013-06-04 11:58:00,
2013-06-04 08:03:00,65.3,58.3,30.00,NNW,342,1.0,3.0,78,0.00,,,0.00,Wunderground v.1.15,2013-06-04 12:03:00,
2013-06-04 08:08:00,65.6,58.2,30.00,NNW,345,2.0,3.0,77,0.00,,,0.00,Wunderground v.1.15,2013-06-04 12:08:00,
2013-06-04 08:13:00,65.8,58.4,30.00,SE,131,0.0,4.0,77,0.00,,,0.00,Wunderground v.1.15,2013-06-04 12:13:00,
2013-06-04 08:18:00,66.1,58.7,30.00,SE,131,1.0,4.0,77,0.00,,,0.00,Wunderground v.1.15,2013-06-04 12:18:00,
2013-06-04 08:23:00,66.4,58.6,30.00,SE,131,0.0,0.0,76,0.00,,,0.00,Wunderground v.1.15,2013-06-04 12:23:00,
2013-06-04 08:28:00,66.6,59.2,30.00,SE,131,0.0,2.0,77,0.00,,,0.00,Wunderground v.1.15,2013-06-04 12:28:00,
2013-06-04 08:33:00,66.8,58.6,30.00,SSE,148,0.0,3.0,75,0.00,,,0.00,Wunderground v.1.15,2013-06-04 12:33:00,
2013-06-04 08:38:00,66.9,58.3,30.00,SSE,148,0.0,4.0,74,0.00,,,0.00,Wunderground v.1.15,2013-06-04 12:38:00,
2013-06-04 08:43:00,67.3,59.1,30.01,SSE,148,0.0,1.0,75,0.00,,,0.00,Wunderground v.1.15,2013-06-04 12:43:00,
2013-06-04 08:48:00,67.4,58.1,30.01,SSE,148,4.0,4.0,72,0.00,,,0.00,Wunderground v.1.15,2013-06-04 12:48:00,
2013-06-04 08:53:00,67.6,58.6,30.01,SE,130,0.0,6.0,73,0.00,,,0.00,Wunderground v.1.15,2013-06-04 12:53:00,
2013-06-04 08:58:00,68.1,59.5,30.01,SE,130,3.0,6.0,74,0.00,,,0.00,Wunderground v.1.15,2013-06-04 12:58:00,
2013-06-04 09:03:00,68.3,58.9,30.01,ESE,122,0.0,5.0,72,0.00,,,0.00,Wunderground v.1.15,2013-06-04 13:03:00,
2013-06-04 09:08:00,68.3,59.3,30.01,ESE,112,5.0,8.0,73,0.00,,,0.00,Wunderground v.1.15,2013-06-04 13:08:00,
2013-06-04 09:13:00,68.3,59.3,30.01,ESE,103,0.0,6.0,73,0.00,,,0.00,Wunderground v.1.15,2013-06-04 13:13:00,
2013-06-04 09:18:00,68.6,59.6,30.01,ESE,103,3.0,6.0,73,0.00,,,0.00,Wunderground v.1.15,2013-06-04 13:18:00,
2013-06-04 09:23:00,68.8,59.8,30.01,ESE,103,1.0,3.0,73,0.00,,,0.00,Wunderground v.1.15,2013-06-04 13:23:00,
2013-06-04 09:28:00,68.9,59.9,30.02,ESE,118,4.0,4.0,73,0.00,,,0.00,Wunderground v.1.15,2013-06-04 13:28:00,
2013-06-04 09:33:00,69.1,59.3,30.02,ESE,120,0.0,4.0,71,0.00,,,0.00,Wunderground v.1.15,2013-06-04 13:33:00,
2013-06-04 09:38:00,69.4,60.4,30.02,ESE,120,0.0,5.0,73,0.00,,,0.00,Wunderground v.1.15,2013-06-04 13:38:00,
2013-06-04 09:43:00,69.6,59.4,30.02,ESE,118,0.0,4.0,70,0.00,,,0.00,Wunderground v.1.15,2013-06-04 13:43:00,
2013-06-04 09:48:00,69.4,60.0,30.02,ESE,108,4.0,5.0,72,0.00,,,0.00,Wunderground v.1.15,2013-06-04 13:48:00,
2013-06-04 09:53:00,69.8,61.1,30.02,ESE,108,0.0,4.0,74,0.00,,,0.00,Wunderground v.1.15,2013-06-04 13:53:00,
2013-06-04 09:58:00,70.1,60.3,30.02,ESE,105,3.0,5.0,71,0.00,,,0.00,Wunderground v.1.15,2013-06-04 13:58:00,
2013-06-04 10:03:00,69.9,60.5,30.02,East,100,5.0,7.0,72,0.00,,,0.00,Wunderground v.1.15,2013-06-04 14:03:00,
2013-06-04 10:08:00,70.3,61.6,30.02,East,100,0.0,7.0,74,0.00,,,0.00,Wunderground v.1.15,2013-06-04 14:08:00,
2013-06-04 10:13:00,70.4,60.5,30.02,East,101,0.0,6.0,71,0.00,,,0.00,Wunderground v.1.15,2013-06-04 14:13:00,
2013-06-04 10:18:00,70.6,61.1,30.02,East,101,3.0,6.0,72,0.00,,,0.00,Wunderground v.1.15,2013-06-04 14:18:00,
2013-06-04 10:23:00,70.9,61.0,30.02,East,101,2.0,5.0,71,0.00,,,0.00,Wunderground v.1.15,2013-06-04 14:23:00,
2013-06-04 10:28:00,70.9,61.0,30.02,East,98,0.0,6.0,71,0.00,,,0.00,Wunderground v.1.15,2013-06-04 14:28:00,
2013-06-04 10:33:00,70.9,60.6,30.02,ESE,105,0.0,5.0,70,0.00,,,0.00,Wunderground v.1.15,2013-06-04 14:33:00,
2013-06-04 10:38:00,71.3,61.8,30.02,ESE,105,3.0,5.0,72,0.00,,,0.00,Wunderground v.1.15,2013-06-04 14:38:00,
2013-06-04 10:43:00,71.5,61.6,30.02,ESE,103,4.0,6.0,71,0.00,,,0.00,Wunderground v.1.15,2013-06-04 14:43:00,
2013-06-04 10:48:00,71.1,62.0,30.02,East,98,4.0,6.0,73,0.00,,,0.00,Wunderground v.1.15,2013-06-04 14:48:00,
2013-06-04 10:53:00,71.8,62.3,30.02,East,98,3.0,5.0,72,0.00,,,0.00,Wunderground v.1.15,2013-06-04 14:53:00,
2013-06-04 10:58:00,72.0,62.1,30.02,East,95,0.0,6.0,71,0.00,,,0.00,Wunderground v.1.15,2013-06-04 14:58:00,
2013-06-04 11:03:00,72.1,61.4,30.02,East,95,4.0,5.0,69,0.00,,,0.00,Wunderground v.1.15,2013-06-04 15:03:00,
2013-06-04 11:08:00,72.1,62.2,30.02,East,95,1.0,6.0,71,0.00,,,0.00,Wunderground v.1.15,2013-06-04 15:08:00,
2013-06-04 11:13:00,72.3,62.0,30.02,East,95,0.0,4.0,70,0.00,,,0.00,Wunderground v.1.15,2013-06-04 15:13:00,
2013-06-04 11:18:00,72.5,62.6,30.02,East,95,0.0,4.0,71,0.00,,,0.00,Wunderground v.1.15,2013-06-04 15:18:00,
2013-06-04 11:23:00,72.5,62.2,30.01,East,94,0.0,5.0,70,0.00,,,0.00,Wunderground v.1.15,2013-06-04 15:23:00,
2013-06-04 11:28:00,72.7,62.8,30.01,ESE,103,4.0,7.0,71,0.00,,,0.00,Wunderground v.1.15,2013-06-04 15:28:00,
2013-06-04 11:33:00,72.8,61.6,30.01,ESE,104,2.0,7.0,68,0.00,,,0.00,Wunderground v.1.15,2013-06-04 15:33:00,
2013-06-04 11:38:00,73.2,63.6,30.02,East,86,3.0,7.0,72,0.00,,,0.00,Wunderground v.1.15,2013-06-04 15:38:00,
2013-06-04 11:43:00,73.2,62.4,30.02,East,98,0.0,7.0,69,0.00,,,0.00,Wunderground v.1.15,2013-06-04 15:43:00,
2013-06-04 11:48:00,73.5,62.3,30.02,East,97,0.0,7.0,68,0.00,,,0.00,Wunderground v.1.15,2013-06-04 15:48:00,
2013-06-04 11:53:00,73.5,61.0,30.02,East,96,4.0,8.0,65,0.00,,,0.00,Wunderground v.1.15,2013-06-04 15:53:00,
2013-06-04 11:58:00,73.5,61.4,30.02,East,96,0.0,8.0,66,0.00,,,0.00,Wunderground v.1.15,2013-06-04 15:58:00,
2013-06-04 12:03:00,73.2,60.3,30.02,East,97,0.0,6.0,64,0.00,,,0.00,Wunderground v.1.15,2013-06-04 16:03:00,
2013-06-04 12:08:00,73.9,63.5,30.01,ESE,103,4.0,9.0,70,0.00,,,0.00,Wunderground v.1.15,2013-06-04 16:08:00,
2013-06-04 12:13:00,74.0,61.9,30.01,East,99,0.0,5.0,66,0.00,,,0.00,Wunderground v.1.15,2013-06-04 16:13:00,
2013-06-04 12:18:00,74.2,60.3,30.01,East,99,0.0,6.0,62,0.00,,,0.00,Wunderground v.1.15,2013-06-04 16:18:00,
2013-06-04 12:23:00,74.4,61.9,30.02,ESE,103,6.0,9.0,65,0.00,,,0.00,Wunderground v.1.15,2013-06-04 16:23:00,
2013-06-04 12:28:00,74.7,62.1,30.02,East,98,6.0,10.0,65,0.00,,,0.00,Wunderground v.1.15,2013-06-04 16:28:00,
2013-06-04 12:33:00,74.9,61.0,30.02,ESE,122,3.0,7.0,62,0.00,,,0.00,Wunderground v.1.15,2013-06-04 16:33:00,
2013-06-04 12:38:00,74.7,61.3,30.02,ESE,122,0.0,7.0,63,0.00,,,0.00,Wunderground v.1.15,2013-06-04 16:38:00,
2013-06-04 12:43:00,74.0,61.0,30.02,ESE,122,0.0,6.0,64,0.00,,,0.00,Wunderground v.1.15,2013-06-04 16:43:00,
2013-06-04 12:48:00,73.7,61.6,30.02,ESE,122,3.0,6.0,66,0.00,,,0.00,Wunderground v.1.15,2013-06-04 16:48:00,
2013-06-04 12:53:00,74.7,59.9,30.02,ESE,122,2.0,4.0,60,0.00,,,0.00,Wunderground v.1.15,2013-06-04 16:53:00,
2013-06-04 12:58:00,75.4,61.5,30.02,ESE,105,1.0,6.0,62,0.00,,,0.00,Wunderground v.1.15,2013-06-04 16:58:00,
2013-06-04 13:03:00,74.9,61.0,30.02,East,95,4.0,6.0,62,0.00,,,0.00,Wunderground v.1.15,2013-06-04 17:03:00,
2013-06-04 13:08:00,74.9,60.1,30.01,East,95,0.0,6.0,60,0.00,,,0.00,Wunderground v.1.15,2013-06-04 17:08:00,
2013-06-04 13:13:00,74.4,60.5,30.01,East,95,0.0,1.0,62,0.00,,,0.00,Wunderground v.1.15,2013-06-04 17:13:00,
2013-06-04 13:18:00,74.2,59.9,30.01,East,101,0.0,8.0,61,0.00,,,0.00,Wunderground v.1.15,2013-06-04 17:18:00,
2013-06-04 13:23:00,74.6,59.8,30.01,East,100,0.0,7.0,60,0.00,,,0.00,Wunderground v.1.15,2013-06-04 17:23:00,
2013-06-04 13:28:00,75.3,62.3,30.01,ESE,106,0.0,7.0,64,0.00,,,0.00,Wunderground v.1.15,2013-06-04 17:28:00,
2013-06-04 13:33:00,75.3,57.5,30.01,ESE,106,5.0,6.0,54,0.00,,,0.00,Wunderground v.1.15,2013-06-04 17:33:00,
2013-06-04 13:38:00,73.9,58.7,30.02,East,96,5.0,9.0,59,0.00,,,0.00,Wunderground v.1.15,2013-06-04 17:38:00,
2013-06-04 13:43:00,73.9,56.2,30.02,East,96,1.0,4.0,54,0.00,,,0.00,Wunderground v.1.15,2013-06-04 17:43:00,
2013-06-04 13:48:00,74.2,57.5,30.02,ESE,114,3.0,9.0,56,0.00,,,0.00,Wunderground v.1.15,2013-06-04 17:48:00,
2013-06-04 13:53:00,73.9,58.2,30.02,ESE,114,0.0,5.0,58,0.00,,,0.00,Wunderground v.1.15,2013-06-04 17:53:00,
2013-06-04 13:58:00,74.2,58.0,30.02,ESE,114,0.0,5.0,57,0.00,,,0.00,Wunderground v.1.15,2013-06-04 17:58:00,
2013-06-04 14:03:00,74.9,59.1,30.02,ESE,106,0.0,4.0,58,0.00,,,0.00,Wunderground v.1.15,2013-06-04 18:03:00,
2013-06-04 14:08:00,75.3,59.0,30.01,ESE,106,4.0,5.0,57,0.00,,,0.00,Wunderground v.1.15,2013-06-04 18:08:00,
2013-06-04 14:13:00,75.4,57.6,30.01,ESE,106,3.0,3.0,54,0.00,,,0.00,Wunderground v.1.15,2013-06-04 18:13:00,
2013-06-04 14:18:00,75.8,56.9,30.01,ESE,104,5.0,6.0,52,0.00,,,0.00,Wunderground v.1.15,2013-06-04 18:18:00,
2013-06-04 14:23:00,75.8,56.9,30.01,ESE,113,4.0,9.0,52,0.00,,,0.00,Wunderground v.1.15,2013-06-04 18:23:00,
2013-06-04 14:28:00,75.3,57.0,30.01,East,96,3.0,9.0,53,0.00,,,0.00,Wunderground v.1.15,2013-06-04 18:28:00,
2013-06-04 14:33:00,76.0,59.7,30.01,East,96,0.0,3.0,57,0.00,,,0.00,Wunderground v.1.15,2013-06-04 18:33:00,
2013-06-04 14:38:00,76.1,57.2,30.01,East,89,6.0,9.0,52,0.00,,,0.00,Wunderground v.1.15,2013-06-04 18:38:00,
2013-06-04 14:43:00,76.0,57.1,30.01,East,96,2.0,5.0,52,0.00,,,0.00,Wunderground v.1.15,2013-06-04 18:43:00,
2013-06-04 14:48:00,76.0,56.6,30.01,ESE,108,4.0,7.0,51,0.00,,,0.00,Wunderground v.1.15,2013-06-04 18:48:00,
2013-06-04 14:53:00,76.1,58.2,30.00,ESE,114,6.0,7.0,54,0.00,,,0.00,Wunderground v.1.15,2013-06-04 18:53:00,
2013-06-04 14:58:00,76.0,59.7,30.00,ESE,117,7.0,8.0,57,0.00,,,0.00,Wunderground v.1.15,2013-06-04 18:58:00,
2013-06-04 15:03:00,75.1,58.3,30.00,ESE,117,0.0,5.0,56,0.00,,,0.00,Wunderground v.1.15,2013-06-04 19:03:00,
2013-06-04 15:08:00,74.9,59.1,30.01,ESE,117,2.0,5.0,58,0.00,,,0.00,Wunderground v.1.15,2013-06-04 19:08:00,
2013-06-04 15:13:00,75.3,59.0,30.01,ESE,117,0.0,4.0,57,0.00,,,0.00,Wunderground v.1.15,2013-06-04 19:13:00,
2013-06-04 15:18:00,75.4,59.6,30.01,ESE,117,0.0,4.0,58,0.00,,,0.00,Wunderground v.1.15,2013-06-04 19:18:00,
2013-06-04 15:23:00,75.8,60.0,30.00,ESE,117,0.0,4.0,58,0.00,,,0.00,Wunderground v.1.15,2013-06-04 19:23:00,
2013-06-04 15:28:00,76.0,58.7,30.00,ESE,117,0.0,4.0,55,0.00,,,0.00,Wunderground v.1.15,2013-06-04 19:28:00,
2013-06-04 15:33:00,76.1,59.3,30.00,ESE,117,4.0,4.0,56,0.00,,,0.00,Wunderground v.1.15,2013-06-04 19:33:00,
2013-06-04 15:38:00,76.1,59.3,30.00,East,99,0.0,6.0,56,0.00,,,0.00,Wunderground v.1.15,2013-06-04 19:38:00,
2013-06-04 15:43:00,76.1,58.8,30.00,East,91,4.0,6.0,55,0.00,,,0.00,Wunderground v.1.15,2013-06-04 19:43:00,
2013-06-04 15:48:00,76.1,58.2,30.00,East,91,0.0,6.0,54,0.00,,,0.00,Wunderground v.1.15,2013-06-04 19:48:00,
2013-06-04 15:53:00,76.1,58.8,30.00,East,98,0.0,4.0,55,0.00,,,0.00,Wunderground v.1.15,2013-06-04 19:53:00,
2013-06-04 15:58:00,76.1,58.8,30.00,East,99,4.0,7.0,55,0.00,,,0.00,Wunderground v.1.15,2013-06-04 19:58:00,
2013-06-04 16:03:00,76.1,58.8,30.00,East,99,4.0,5.0,55,0.00,,,0.00,Wunderground v.1.15,2013-06-04 20:03:00,
2013-06-04 16:08:00,75.8,58.0,30.00,East,99,3.0,5.0,54,0.00,,,0.00,Wunderground v.1.15,2013-06-04 20:08:00,
2013-06-04 16:13:00,75.8,59.5,30.00,East,99,3.0,5.0,57,0.00,,,0.00,Wunderground v.1.15,2013-06-04 20:13:00,
2013-06-04 16:18:00,75.8,58.0,30.00,East,98,2.0,5.0,54,0.00,,,0.00,Wunderground v.1.15,2013-06-04 20:18:00,
2013-06-04 16:23:00,75.4,57.6,30.00,East,98,0.0,1.0,54,0.00,,,0.00,Wunderground v.1.15,2013-06-04 20:23:00,
2013-06-04 16:28:00,75.4,57.6,30.00,East,98,0.0,4.0,54,0.00,,,0.00,Wunderground v.1.15,2013-06-04 20:28:00,
2013-06-04 16:33:00,75.3,60.0,30.00,East,98,0.0,4.0,59,0.00,,,0.00,Wunderground v.1.15,2013-06-04 20:33:00,
2013-06-04 16:38:00,75.1,58.8,30.00,East,98,0.0,4.0,57,0.00,,,0.00,Wunderground v.1.15,2013-06-04 20:38:00,
2013-06-04 16:43:00,74.9,61.0,30.00,East,98,0.0,4.0,62,0.00,,,0.00,Wunderground v.1.15,2013-06-04 20:43:00,
2013-06-04 16:48:00,75.1,60.7,30.00,East,98,2.0,4.0,61,0.00,,,0.00,Wunderground v.1.15,2013-06-04 20:48:00,
2013-06-04 16:53:00,75.6,59.3,29.99,East,98,0.0,7.0,57,0.00,,,0.00,Wunderground v.1.15,2013-06-04 20:53:00,
2013-06-04 16:58:00,75.8,59.5,29.99,East,98,0.0,7.0,57,0.00,,,0.00,Wunderground v.1.15,2013-06-04 20:58:00,
2013-06-04 17:03:00,75.8,60.0,29.99,East,98,0.0,2.0,58,0.00,,,0.00,Wunderground v.1.15,2013-06-04 21:03:00,
2013-06-04 17:08:00,75.8,59.0,29.98,East,99,0.0,5.0,56,0.00,,,0.00,Wunderground v.1.15,2013-06-04 21:08:00,
2013-06-04 17:13:00,75.8,60.0,29.98,East,99,0.0,1.0,58,0.00,,,0.00,Wunderground v.1.15,2013-06-04 21:13:00,
2013-06-04 17:18:00,76.0,61.6,29.98,East,99,0.0,1.0,61,0.00,,,0.00,Wunderground v.1.15,2013-06-04 21:18:00,
2013-06-04 17:23:00,76.0,58.2,29.98,East,99,0.0,0.0,54,0.00,,,0.00,Wunderground v.1.15,2013-06-04 21:23:00,
2013-06-04 17:28:00,76.1,61.2,29.98,East,99,0.0,1.0,60,0.00,,,0.00,Wunderground v.1.15,2013-06-04 21:28:00,
2013-06-04 17:33:00,76.0,59.2,29.98,East,99,1.0,5.0,56,0.00,,,0.00,Wunderground v.1.15,2013-06-04 21:33:00,
2013-06-04 17:38:00,75.8,59.5,29.98,East,99,0.0,5.0,57,0.00,,,0.00,Wunderground v.1.15,2013-06-04 21:38:00,
2013-06-04 17:43:00,75.6,57.8,29.98,East,99,0.0,4.0,54,0.00,,,0.00,Wunderground v.1.15,2013-06-04 21:43:00,
2013-06-04 17:48:00,75.8,60.0,29.98,East,99,0.0,4.0,58,0.00,,,0.00,Wunderground v.1.15,2013-06-04 21:48:00,
2013-06-04 17:53:00,75.8,58.0,29.98,East,99,0.0,1.0,54,0.00,,,0.00,Wunderground v.1.15,2013-06-04 21:53:00,
2013-06-04 17:58:00,75.8,59.5,29.98,East,99,0.0,1.0,57,0.00,,,0.00,Wunderground v.1.15,2013-06-04 21:58:00,
2013-06-04 18:03:00,75.4,58.1,29.98,East,99,0.0,1.0,55,0.00,,,0.00,Wunderground v.1.15,2013-06-04 22:03:00,
2013-06-04 18:08:00,75.6,57.3,29.98,East,99,0.0,3.0,53,0.00,,,0.00,Wunderground v.1.15,2013-06-04 22:08:00,
2013-06-04 18:13:00,75.8,59.0,29.98,East,99,0.0,1.0,56,0.00,,,0.00,Wunderground v.1.15,2013-06-04 22:13:00,
2013-06-04 18:18:00,75.8,59.5,29.98,East,99,0.0,1.0,57,0.00,,,0.00,Wunderground v.1.15,2013-06-04 22:18:00,
2013-06-04 18:23:00,75.8,59.0,29.97,East,99,0.0,1.0,56,0.00,,,0.00,Wunderground v.1.15,2013-06-04 22:23:00,
2013-06-04 18:28:00,76.0,60.2,29.97,North,32767,0.0,1.0,58,0.00,,,0.00,Wunderground v.1.15,2013-06-04 22:28:00,
2013-06-04 18:33:00,76.0,58.2,29.97,North,32767,0.0,0.0,54,0.00,,,0.00,Wunderground v.1.15,2013-06-04 22:33:00,
2013-06-04 18:38:00,76.0,58.2,29.97,North,32767,0.0,0.0,54,0.00,,,0.00,Wunderground v.1.15,2013-06-04 22:38:00,
2013-06-04 18:43:00,75.8,56.9,29.97,North,353,0.0,2.0,52,0.00,,,0.00,Wunderground v.1.15,2013-06-04 22:43:00,
2013-06-04 18:48:00,75.4,58.1,29.97,North,353,1.0,3.0,55,0.00,,,0.00,Wunderground v.1.15,2013-06-04 22:48:00,
2013-06-04 18:53:00,75.3,57.5,29.97,North,354,2.0,3.0,54,0.00,,,0.00,Wunderground v.1.15,2013-06-04 22:53:00,
2013-06-04 18:58:00,75.1,58.3,29.97,North,355,1.0,3.0,56,0.00,,,0.00,Wunderground v.1.15,2013-06-04 22:58:00,
2013-06-04 19:03:00,74.7,58.5,29.97,North,355,1.0,2.0,57,0.00,,,0.00,Wunderground v.1.15,2013-06-04 23:03:00,
2013-06-04 19:08:00,74.6,58.8,29.97,North,355,2.0,3.0,58,0.00,,,0.00,Wunderground v.1.15,2013-06-04 23:08:00,
2013-06-04 19:13:00,74.6,58.8,29.97,North,355,1.0,2.0,58,0.00,,,0.00,Wunderground v.1.15,2013-06-04 23:13:00,
2013-06-04 19:18:00,74.4,59.1,29.97,North,355,0.0,2.0,59,0.00,,,0.00,Wunderground v.1.15,2013-06-04 23:18:00,
2013-06-04 19:23:00,74.2,58.9,29.97,North,355,0.0,0.0,59,0.00,,,0.00,Wunderground v.1.15,2013-06-04 23:23:00,
2013-06-04 19:28:00,74.2,60.3,29.97,North,355,0.0,0.0,62,0.00,,,0.00,Wunderground v.1.15,2013-06-04 23:28:00,
2013-06-04 19:33:00,73.9,59.6,29.97,North,355,0.0,0.0,61,0.00,,,0.00,Wunderground v.1.15,2013-06-04 23:33:00,
2013-06-04 19:38:00,73.9,61.0,29.96,North,355,0.0,0.0,64,0.00,,,0.00,Wunderground v.1.15,2013-06-04 23:38:00,
2013-06-04 19:43:00,73.7,59.9,29.96,North,355,0.0,0.0,62,0.00,,,0.00,Wunderground v.1.15,2013-06-04 23:43:00,
2013-06-04 19:48:00,73.5,61.0,29.96,North,355,0.0,0.0,65,0.00,,,0.00,Wunderground v.1.15,2013-06-04 23:48:00,
2013-06-04 19:53:00,73.3,61.3,29.97,North,355,0.0,0.0,66,0.00,,,0.00,Wunderground v.1.15,2013-06-04 23:53:00,
2013-06-04 19:58:00,73.2,60.7,29.97,North,355,0.0,0.0,65,0.00,,,0.00,Wunderground v.1.15,2013-06-04 23:58:00,
2013-06-04 20:03:00,73.0,60.1,29.97,North,355,0.0,0.0,64,0.00,,,0.00,Wunderground v.1.15,2013-06-05 00:03:00,
2013-06-04 20:08:00,72.8,60.3,29.97,North,355,0.0,0.0,65,0.00,,,0.00,Wunderground v.1.15,2013-06-05 00:08:00,
2013-06-04 20:13:00,72.7,60.3,29.97,North,355,0.0,0.0,65,0.00,,,0.00,Wunderground v.1.15,2013-06-05 00:13:00,
2013-06-04 20:18:00,72.3,59.9,29.97,North,355,0.0,0.0,65,0.00,,,0.00,Wunderground v.1.15,2013-06-05 00:18:00,
2013-06-04 20:23:00,72.1,59.7,29.97,North,355,0.0,0.0,65,0.00,,,0.00,Wunderground v.1.15,2013-06-05 00:23:00,
2013-06-04 20:28:00,71.8,59.4,29.97,North,355,0.0,0.0,65,0.00,,,0.00,Wunderground v.1.15,2013-06-05 00:28:00,
2013-06-04 20:33:00,71.5,59.1,29.97,North,355,0.0,0.0,65,0.00,,,0.00,Wunderground v.1.15,2013-06-05 00:33:00,
2013-06-04 20:38:00,71.3,59.4,29.96,North,355,0.0,0.0,66,0.00,,,0.00,Wunderground v.1.15,2013-06-05 00:38:00,
2013-06-04 20:43:00,70.9,58.5,29.96,North,355,0.0,0.0,65,0.00,,,0.00,Wunderground v.1.15,2013-06-05 00:43:00,
2013-06-04 20:48:00,70.9,58.5,29.96,North,355,0.0,0.0,65,0.00,,,0.00,Wunderground v.1.15,2013-06-05 00:48:00,
2013-06-04 20:53:00,70.8,58.4,29.97,North,355,0.0,0.0,65,0.00,,,0.00,Wunderground v.1.15,2013-06-05 00:53:00,
2013-06-04 20:58:00,70.8,58.4,29.97,North,355,0.0,0.0,65,0.00,,,0.00,Wunderground v.1.15,2013-06-05 00:58:00,
2013-06-04 21:03:00,70.6,58.7,29.97,North,355,0.0,1.0,66,0.00,,,0.00,Wunderground v.1.15,2013-06-05 01:03:00,
2013-06-04 21:08:00,70.4,58.5,29.98,North,355,0.0,1.0,66,0.00,,,0.00,Wunderground v.1.15,2013-06-05 01:08:00,
2013-06-04 21:13:00,70.4,58.1,29.98,North,355,0.0,0.0,65,0.00,,,0.00,Wunderground v.1.15,2013-06-05 01:13:00,
2013-06-04 21:19:00,70.3,58.4,29.98,North,355,0.0,0.0,66,0.00,,,0.00,Wunderground v.1.15,2013-06-05 01:19:00,
2013-06-04 21:23:00,70.3,58.0,29.98,North,355,0.0,0.0,65,0.00,,,0.00,Wunderground v.1.15,2013-06-05 01:23:00,
2013-06-04 21:29:00,70.3,58.4,29.98,North,355,0.0,0.0,66,0.00,,,0.00,Wunderground v.1.15,2013-06-05 01:29:00,
2013-06-04 21:34:00,70.3,59.2,29.98,North,355,0.0,0.0,68,0.00,,,0.00,Wunderground v.1.15,2013-06-05 01:34:00,
2013-06-04 21:39:00,70.1,59.5,29.98,North,355,0.0,0.0,69,0.00,,,0.00,Wunderground v.1.15,2013-06-05 01:39:00,
2013-06-04 21:44:00,69.9,59.7,29.98,North,355,0.0,0.0,70,0.00,,,0.00,Wunderground v.1.15,2013-06-05 01:44:00,
2013-06-04 21:49:00,69.8,59.2,29.98,North,355,0.0,0.0,69,0.00,,,0.00,Wunderground v.1.15,2013-06-05 01:49:00,
2013-06-04 21:54:00,69.6,58.6,29.98,North,355,0.0,0.0,68,0.00,,,0.00,Wunderground v.1.15,2013-06-05 01:54:00,
2013-06-04 21:59:00,69.6,58.2,29.98,North,355,0.0,0.0,67,0.00,,,0.00,Wunderground v.1.15,2013-06-05 01:59:00,
2013-06-04 22:04:00,69.4,58.0,29.98,North,355,0.0,0.0,67,0.00,,,0.00,Wunderground v.1.15,2013-06-05 02:04:00,
2013-06-04 22:09:00,69.4,58.8,29.99,North,355,0.0,0.0,69,0.00,,,0.00,Wunderground v.1.15,2013-06-05 02:09:00,
2013-06-04 22:14:00,69.4,58.0,29.99,North,355,0.0,0.0,67,0.00,,,0.00,Wunderground v.1.15,2013-06-05 02:14:00,
2013-06-04 22:19:00,69.3,57.9,29.99,North,355,0.0,0.0,67,0.00,,,0.00,Wunderground v.1.15,2013-06-05 02:19:00,
2013-06-04 22:24:00,69.3,57.5,30.00,North,355,0.0,0.0,66,0.00,,,0.00,Wunderground v.1.15,2013-06-05 02:24:00,
2013-06-04 22:29:00,69.4,57.5,30.00,North,355,0.0,0.0,66,0.00,,,0.00,Wunderground v.1.15,2013-06-05 02:29:00,
2013-06-04 22:34:00,69.6,57.7,30.00,North,355,0.0,0.0,66,0.00,,,0.00,Wunderground v.1.15,2013-06-05 02:34:00,
2013-06-04 22:39:00,69.8,57.9,29.99,North,355,0.0,0.0,66,0.00,,,0.00,Wunderground v.1.15,2013-06-05 02:39:00,
2013-06-04 22:44:00,69.8,57.9,29.99,North,355,0.0,0.0,66,0.00,,,0.00,Wunderground v.1.15,2013-06-05 02:44:00,
2013-06-04 22:49:00,69.8,58.3,29.99,North,355,0.0,0.0,67,0.00,,,0.00,Wunderground v.1.15,2013-06-05 02:49:00,
2013-06-04 22:54:00,69.6,57.7,29.99,North,355,0.0,0.0,66,0.00,,,0.00,Wunderground v.1.15,2013-06-05 02:54:00,
2013-06-04 22:59:00,69.6,57.7,29.99,North,355,0.0,0.0,66,0.00,,,0.00,Wunderground v.1.15,2013-06-05 02:59:00,
2013-06-04 23:04:00,69.6,57.7,29.99,North,355,0.0,0.0,66,0.00,,,0.00,Wunderground v.1.15,2013-06-05 03:04:00,
2013-06-04 23:09:00,69.6,59.0,29.99,North,355,0.0,0.0,69,0.00,,,0.00,Wunderground v.1.15,2013-06-05 03:09:00,
2013-06-04 23:14:00,69.4,58.4,29.99,North,355,0.0,0.0,68,0.00,,,0.00,Wunderground v.1.15,2013-06-05 03:14:00,
2013-06-04 23:19:00,69.3,57.9,29.99,North,355,0.0,0.0,67,0.00,,,0.00,Wunderground v.1.15,2013-06-05 03:19:00,
2013-06-04 23:24:00,69.3,57.5,29.99,North,355,0.0,0.0,66,0.00,,,0.00,Wunderground v.1.15,2013-06-05 03:24:00,
2013-06-04 23:29:00,69.3,57.5,29.99,North,355,0.0,0.0,66,0.00,,,0.00,Wunderground v.1.15,2013-06-05 03:29:00,
2013-06-04 23:34:00,69.4,58.0,29.99,North,355,0.0,0.0,67,0.00,,,0.00,Wunderground v.1.15,2013-06-05 03:34:00,
2013-06-04 23:39:00,69.3,58.7,29.99,North,355,0.0,0.0,69,0.00,,,0.00,Wunderground v.1.15,2013-06-05 03:39:00,
2013-06-04 23:44:00,69.1,58.5,29.99,North,355,0.0,0.0,69,0.00,,,0.00,Wunderground v.1.15,2013-06-05 03:44:00,
2013-06-04 23:49:00,69.1,58.5,29.99,North,355,0.0,0.0,69,0.00,,,0.00,Wunderground v.1.15,2013-06-05 03:49:00,
2013-06-04 23:54:00,68.9,59.1,29.99,North,355,0.0,0.0,71,0.00,,,0.00,Wunderground v.1.15,2013-06-05 03:54:00,
2013-06-04 23:59:00,68.9,58.7,29.99,North,355,0.0,0.0,70,0.00,,,0.00,Wunderground v.1.15,2013-06-05 03:59:00,